Year,Month,Day,Hour,Minute,Value (Times are PST for temperature in C)
2011,07,25,00,00,18.60
2011,07,25,00,01,18.60
2011,07,25,00,02,18.70
2011,07,25,00,03,18.70
2011,07,25,00,04,18.80
2011,07,25,00,05,18.80
2011,07,25,00,06,18.80
2011,07,25,00,07,18.80
2011,07,25,00,08,18.80
2011,07,25,00,09,18.70
2011,07,25,00,10,18.70
2011,07,25,00,11,18.70
2011,07,25,00,12,18.70
2011,07,25,00,13,18.60
2011,07,25,00,14,18.60
2011,07,25,00,15,18.60
2011,07,25,00,16,18.60
2011,07,25,00,17,18.60
2011,07,25,00,18,18.60
2011,07,25,00,19,18.50
2011,07,25,00,20,18.50
2011,07,25,00,21,18.50
2011,07,25,00,22,18.40
2011,07,25,00,23,18.40
2011,07,25,00,24,18.40
2011,07,25,00,25,18.40
2011,07,25,00,26,18.30
2011,07,25,00,27,18.30
2011,07,25,00,28,18.30
2011,07,25,00,29,18.30
2011,07,25,00,30,18.30
2011,07,25,00,31,18.20
2011,07,25,00,32,18.20
2011,07,25,00,33,18.20
2011,07,25,00,34,18.20
2011,07,25,00,35,18.20
2011,07,25,00,36,18.20
2011,07,25,00,37,18.10
2011,07,25,00,38,18.10
2011,07,25,00,39,18.10
2011,07,25,00,40,18.10
2011,07,25,00,41,18.10
2011,07,25,00,42,18.10
2011,07,25,00,43,18.00
2011,07,25,00,44,18.00
2011,07,25,00,45,18.00
2011,07,25,00,46,18.00
2011,07,25,00,47,18.00
2011,07,25,00,48,17.90
2011,07,25,00,49,17.90
2011,07,25,00,50,17.90
2011,07,25,00,51,17.90
2011,07,25,00,52,17.90
2011,07,25,00,53,17.90
2011,07,25,00,54,17.90
2011,07,25,00,55,17.80
2011,07,25,00,56,17.80
2011,07,25,00,57,17.80
2011,07,25,00,58,17.80
2011,07,25,00,59,17.70
2011,07,25,01,00,17.70
2011,07,25,01,01,17.70
2011,07,25,01,02,17.70
2011,07,25,01,03,17.60
2011,07,25,01,04,17.60
2011,07,25,01,05,17.60
2011,07,25,01,06,17.60
2011,07,25,01,07,17.50
2011,07,25,01,08,17.50
2011,07,25,01,09,17.50
2011,07,25,01,10,17.40
2011,07,25,01,11,17.40
2011,07,25,01,12,17.40
2011,07,25,01,13,17.40
2011,07,25,01,14,17.40
2011,07,25,01,15,17.30
2011,07,25,01,16,17.30
2011,07,25,01,17,17.30
2011,07,25,01,18,17.30
2011,07,25,01,19,17.20
2011,07,25,01,20,17.20
2011,07,25,01,21,17.20
2011,07,25,01,22,17.20
2011,07,25,01,23,17.20
2011,07,25,01,24,17.10
2011,07,25,01,25,17.10
2011,07,25,01,26,17.10
2011,07,25,01,27,17.10
2011,07,25,01,28,17.10
2011,07,25,01,29,17.00
2011,07,25,01,30,17.00
2011,07,25,01,31,17.00
2011,07,25,01,32,17.00
2011,07,25,01,33,16.90
2011,07,25,01,34,16.90
2011,07,25,01,35,16.90
2011,07,25,01,36,16.90
2011,07,25,01,37,16.90
2011,07,25,01,38,16.90
2011,07,25,01,39,16.80
2011,07,25,01,40,16.80
2011,07,25,01,41,16.80
2011,07,25,01,42,16.80
2011,07,25,01,43,16.80
2011,07,25,01,44,16.80
2011,07,25,01,45,16.80
2011,07,25,01,46,16.80
2011,07,25,01,47,16.80
2011,07,25,01,48,16.70
2011,07,25,01,49,16.70
2011,07,25,01,50,16.70
2011,07,25,01,51,16.70
2011,07,25,01,52,16.70
2011,07,25,01,53,16.70
2011,07,25,01,54,16.70
2011,07,25,01,55,16.70
2011,07,25,01,56,16.70
2011,07,25,01,57,16.60
2011,07,25,01,58,16.60
2011,07,25,01,59,16.60
2011,07,25,02,00,16.60
2011,07,25,02,01,16.60
2011,07,25,02,02,16.60
2011,07,25,02,03,16.50
2011,07,25,02,04,16.50
2011,07,25,02,05,16.50
2011,07,25,02,06,16.40
2011,07,25,02,07,16.40
2011,07,25,02,08,16.40
2011,07,25,02,09,16.40
2011,07,25,02,10,16.40
2011,07,25,02,11,16.30
2011,07,25,02,12,16.30
2011,07,25,02,13,16.30
2011,07,25,02,14,16.30
2011,07,25,02,15,16.30
2011,07,25,02,16,16.30
2011,07,25,02,17,16.20
2011,07,25,02,18,16.20
2011,07,25,02,19,16.20
2011,07,25,02,20,16.20
2011,07,25,02,21,16.20
2011,07,25,02,22,16.20
2011,07,25,02,23,16.10
2011,07,25,02,24,16.10
2011,07,25,02,25,16.10
2011,07,25,02,26,16.10
2011,07,25,02,27,16.10
2011,07,25,02,28,16.00
2011,07,25,02,29,16.00
2011,07,25,02,30,16.00
2011,07,25,02,31,16.00
2011,07,25,02,32,15.90
2011,07,25,02,33,15.90
2011,07,25,02,34,15.90
2011,07,25,02,35,15.90
2011,07,25,02,36,15.90
2011,07,25,02,37,15.90
2011,07,25,02,38,15.90
2011,07,25,02,39,15.90
2011,07,25,02,40,15.90
2011,07,25,02,41,15.90
2011,07,25,02,42,15.90
2011,07,25,02,43,15.90
2011,07,25,02,44,15.90
2011,07,25,02,45,15.90
2011,07,25,02,46,15.90
2011,07,25,02,47,15.90
2011,07,25,02,48,15.90
2011,07,25,02,49,15.90
2011,07,25,02,50,15.90
2011,07,25,02,51,15.90
2011,07,25,02,52,15.90
2011,07,25,02,53,15.90
2011,07,25,02,54,15.90
2011,07,25,02,55,15.90
2011,07,25,02,56,15.90
2011,07,25,02,57,15.90
2011,07,25,02,58,15.90
2011,07,25,02,59,15.90
2011,07,25,03,00,15.90
2011,07,25,03,01,15.90
2011,07,25,03,02,15.90
2011,07,25,03,03,15.90
2011,07,25,03,04,15.90
2011,07,25,03,05,15.90
2011,07,25,03,06,15.90
2011,07,25,03,07,15.90
2011,07,25,03,08,15.90
2011,07,25,03,09,15.90
2011,07,25,03,10,15.90
2011,07,25,03,11,16.00
2011,07,25,03,12,16.00
2011,07,25,03,13,16.00
2011,07,25,03,14,16.00
2011,07,25,03,15,16.00
2011,07,25,03,16,16.00
2011,07,25,03,17,16.00
2011,07,25,03,18,16.00
2011,07,25,03,19,16.00
2011,07,25,03,20,16.00
2011,07,25,03,21,16.00
2011,07,25,03,22,16.00
2011,07,25,03,23,15.90
2011,07,25,03,24,15.90
2011,07,25,03,25,15.90
2011,07,25,03,26,15.90
2011,07,25,03,27,15.90
2011,07,25,03,28,15.90
2011,07,25,03,29,15.80
2011,07,25,03,30,15.80
2011,07,25,03,31,15.80
2011,07,25,03,32,15.80
2011,07,25,03,33,15.80
2011,07,25,03,34,15.80
2011,07,25,03,35,15.70
2011,07,25,03,36,15.70
2011,07,25,03,37,15.70
2011,07,25,03,38,15.70
2011,07,25,03,39,15.60
2011,07,25,03,40,15.60
2011,07,25,03,41,15.60
2011,07,25,03,42,15.60
2011,07,25,03,43,15.60
2011,07,25,03,44,15.60
2011,07,25,03,45,15.60
2011,07,25,03,46,15.50
2011,07,25,03,47,15.50
2011,07,25,03,48,15.50
2011,07,25,03,49,15.50
2011,07,25,03,50,15.40
2011,07,25,03,51,15.40
2011,07,25,03,52,15.40
2011,07,25,03,53,15.40
2011,07,25,03,54,15.40
2011,07,25,03,55,15.30
2011,07,25,03,56,15.30
2011,07,25,03,57,15.30
2011,07,25,03,58,15.30
2011,07,25,03,59,15.30
2011,07,25,04,00,15.30
2011,07,25,04,01,15.20
2011,07,25,04,02,15.20
2011,07,25,04,03,15.20
2011,07,25,04,04,15.20
2011,07,25,04,05,15.20
2011,07,25,04,06,15.20
2011,07,25,04,07,15.20
2011,07,25,04,08,15.20
2011,07,25,04,09,15.20
2011,07,25,04,10,15.20
2011,07,25,04,11,15.20
2011,07,25,04,12,15.20
2011,07,25,04,13,15.10
2011,07,25,04,14,15.10
2011,07,25,04,15,15.10
2011,07,25,04,16,15.20
2011,07,25,04,17,15.20
2011,07,25,04,18,15.20
2011,07,25,04,19,15.20
2011,07,25,04,20,15.20
2011,07,25,04,21,15.20
2011,07,25,04,22,15.20
2011,07,25,04,23,15.30
2011,07,25,04,24,15.30
2011,07,25,04,25,15.20
2011,07,25,04,26,15.20
2011,07,25,04,27,15.20
2011,07,25,04,28,15.20
2011,07,25,04,29,15.20
2011,07,25,04,30,15.20
2011,07,25,04,31,15.20
2011,07,25,04,32,15.20
2011,07,25,04,33,15.10
2011,07,25,04,34,15.10
2011,07,25,04,35,15.10
2011,07,25,04,36,15.00
2011,07,25,04,37,15.00
2011,07,25,04,38,15.00
2011,07,25,04,39,15.00
2011,07,25,04,40,15.00
2011,07,25,04,41,15.00
2011,07,25,04,42,15.00
2011,07,25,04,43,15.00
2011,07,25,04,44,15.00
2011,07,25,04,45,15.00
2011,07,25,04,46,15.00
2011,07,25,04,47,15.00
2011,07,25,04,48,15.00
2011,07,25,04,49,15.00
2011,07,25,04,50,15.00
2011,07,25,04,51,15.00
2011,07,25,04,52,15.00
2011,07,25,04,53,15.00
2011,07,25,04,54,15.00
2011,07,25,04,55,15.00
2011,07,25,04,56,15.00
2011,07,25,04,57,15.00
2011,07,25,04,58,15.00
2011,07,25,04,59,15.00
2011,07,25,05,00,15.00
2011,07,25,05,01,15.00
2011,07,25,05,02,14.90
2011,07,25,05,03,14.90
2011,07,25,05,04,14.90
2011,07,25,05,05,14.90
2011,07,25,05,06,14.90
2011,07,25,05,07,14.90
2011,07,25,05,08,14.80
2011,07,25,05,09,14.80
2011,07,25,05,10,14.80
2011,07,25,05,11,14.80
2011,07,25,05,12,14.80
2011,07,25,05,13,14.80
2011,07,25,05,14,14.80
2011,07,25,05,15,14.80
2011,07,25,05,16,14.80
2011,07,25,05,17,14.70
2011,07,25,05,18,14.70
2011,07,25,05,19,14.70
2011,07,25,05,20,14.70
2011,07,25,05,21,14.70
2011,07,25,05,22,14.70
2011,07,25,05,23,14.70
2011,07,25,05,24,14.70
2011,07,25,05,25,14.70
2011,07,25,05,26,14.70
2011,07,25,05,27,14.70
2011,07,25,05,28,14.70
2011,07,25,05,29,14.80
2011,07,25,05,30,14.80
2011,07,25,05,31,14.80
2011,07,25,05,32,14.80
2011,07,25,05,33,14.80
2011,07,25,05,34,14.70
2011,07,25,05,35,14.70
2011,07,25,05,36,14.70
2011,07,25,05,37,14.70
2011,07,25,05,38,14.70
2011,07,25,05,39,14.70
2011,07,25,05,40,14.70
2011,07,25,05,41,14.70
2011,07,25,05,42,14.70
2011,07,25,05,43,14.70
2011,07,25,05,44,14.80
2011,07,25,05,45,14.80
2011,07,25,05,46,14.80
2011,07,25,05,47,14.80
2011,07,25,05,48,14.80
2011,07,25,05,49,14.90
2011,07,25,05,50,14.90
2011,07,25,05,51,14.90
2011,07,25,05,52,14.90
2011,07,25,05,53,14.90
2011,07,25,05,54,14.80
2011,07,25,05,55,14.80
2011,07,25,05,56,14.80
2011,07,25,05,57,14.80
2011,07,25,05,58,14.80
2011,07,25,05,59,14.80
2011,07,25,06,00,14.70
2011,07,25,06,01,14.70
2011,07,25,06,02,14.70
2011,07,25,06,03,14.70
2011,07,25,06,04,14.70
2011,07,25,06,05,14.70
2011,07,25,06,06,14.70
2011,07,25,06,07,14.80
2011,07,25,06,08,14.80
2011,07,25,06,09,14.80
2011,07,25,06,10,14.80
2011,07,25,06,11,14.80
2011,07,25,06,12,14.80
2011,07,25,06,13,14.80
2011,07,25,06,14,14.80
2011,07,25,06,15,14.80
2011,07,25,06,16,14.80
2011,07,25,06,17,14.70
2011,07,25,06,18,14.70
2011,07,25,06,19,14.70
2011,07,25,06,20,14.60
2011,07,25,06,21,14.60
2011,07,25,06,22,14.60
2011,07,25,06,23,14.60
2011,07,25,06,24,14.60
2011,07,25,06,25,14.50
2011,07,25,06,26,14.50
2011,07,25,06,27,14.50
2011,07,25,06,28,14.50
2011,07,25,06,29,14.50
2011,07,25,06,30,14.50
2011,07,25,06,31,14.50
2011,07,25,06,32,14.50
2011,07,25,06,33,14.50
2011,07,25,06,34,14.50
2011,07,25,06,35,14.60
2011,07,25,06,36,14.60
2011,07,25,06,37,14.70
2011,07,25,06,38,14.70
2011,07,25,06,39,14.70
2011,07,25,06,40,14.80
2011,07,25,06,41,14.80
2011,07,25,06,42,14.90
2011,07,25,06,43,15.00
2011,07,25,06,44,15.00
2011,07,25,06,45,15.00
2011,07,25,06,46,15.00
2011,07,25,06,47,15.00
2011,07,25,06,48,15.00
2011,07,25,06,49,15.00
2011,07,25,06,50,15.00
2011,07,25,06,51,15.00
2011,07,25,06,52,15.00
2011,07,25,06,53,15.00
2011,07,25,06,54,15.00
2011,07,25,06,55,15.00
2011,07,25,06,56,15.00
2011,07,25,06,57,15.00
2011,07,25,06,58,15.00
2011,07,25,06,59,15.00
2011,07,25,07,00,15.00
2011,07,25,07,01,15.00
2011,07,25,07,02,15.00
2011,07,25,07,03,15.00
2011,07,25,07,04,15.00
2011,07,25,07,05,15.00
2011,07,25,07,06,15.00
2011,07,25,07,07,15.00
2011,07,25,07,08,15.00
2011,07,25,07,09,15.00
2011,07,25,07,10,15.00
2011,07,25,07,11,15.00
2011,07,25,07,12,15.00
2011,07,25,07,13,15.00
2011,07,25,07,14,15.00
2011,07,25,07,15,15.00
2011,07,25,07,16,15.00
2011,07,25,07,17,15.00
2011,07,25,07,18,15.00
2011,07,25,07,19,15.00
2011,07,25,07,20,15.00
2011,07,25,07,21,15.10
2011,07,25,07,22,15.10
2011,07,25,07,23,15.10
2011,07,25,07,24,15.20
2011,07,25,07,25,15.20
2011,07,25,07,26,15.20
2011,07,25,07,27,15.30
2011,07,25,07,28,15.30
2011,07,25,07,29,15.30
2011,07,25,07,30,15.40
2011,07,25,07,31,15.40
2011,07,25,07,32,15.40
2011,07,25,07,33,15.50
2011,07,25,07,34,15.50
2011,07,25,07,35,15.60
2011,07,25,07,36,15.60
2011,07,25,07,37,15.60
2011,07,25,07,38,15.60
2011,07,25,07,39,15.70
2011,07,25,07,40,15.70
2011,07,25,07,41,15.70
2011,07,25,07,42,15.70
2011,07,25,07,43,15.80
2011,07,25,07,44,15.80
2011,07,25,07,45,15.80
2011,07,25,07,46,15.80
2011,07,25,07,47,15.80
2011,07,25,07,48,15.80
2011,07,25,07,49,15.90
2011,07,25,07,50,15.90
2011,07,25,07,51,15.90
2011,07,25,07,52,16.00
2011,07,25,07,53,16.00
2011,07,25,07,54,16.00
2011,07,25,07,55,16.10
2011,07,25,07,56,16.10
2011,07,25,07,57,16.10
2011,07,25,07,58,16.10
2011,07,25,07,59,16.20
2011,07,25,08,00,16.20
2011,07,25,08,01,16.20
2011,07,25,08,02,16.30
2011,07,25,08,03,16.30
2011,07,25,08,04,16.30
2011,07,25,08,05,16.30
2011,07,25,08,06,16.30
2011,07,25,08,07,16.40
2011,07,25,08,08,16.40
2011,07,25,08,09,16.40
2011,07,25,08,10,16.40
2011,07,25,08,11,16.50
2011,07,25,08,12,16.50
2011,07,25,08,13,16.60
2011,07,25,08,14,16.60
2011,07,25,08,15,16.60
2011,07,25,08,16,16.60
2011,07,25,08,17,16.70
2011,07,25,08,18,16.70
2011,07,25,08,19,16.70
2011,07,25,08,20,16.80
2011,07,25,08,21,16.80
2011,07,25,08,22,16.80
2011,07,25,08,23,16.80
2011,07,25,08,24,16.80
2011,07,25,08,25,16.80
2011,07,25,08,26,16.90
2011,07,25,08,27,16.90
2011,07,25,08,28,16.90
2011,07,25,08,29,17.00
2011,07,25,08,30,17.10
2011,07,25,08,31,17.10
2011,07,25,08,32,17.20
2011,07,25,08,33,17.20
2011,07,25,08,34,17.30
2011,07,25,08,35,17.30
2011,07,25,08,36,17.30
2011,07,25,08,37,17.30
2011,07,25,08,38,17.30
2011,07,25,08,39,17.30
2011,07,25,08,40,17.30
2011,07,25,08,41,17.30
2011,07,25,08,42,17.20
2011,07,25,08,43,17.20
2011,07,25,08,44,17.20
2011,07,25,08,45,17.20
2011,07,25,08,46,17.20
2011,07,25,08,47,17.20
2011,07,25,08,48,17.20
2011,07,25,08,49,17.20
2011,07,25,08,50,17.20
2011,07,25,08,51,17.20
2011,07,25,08,52,17.20
2011,07,25,08,53,17.20
2011,07,25,08,54,17.20
2011,07,25,08,55,17.30
2011,07,25,08,56,17.30
2011,07,25,08,57,17.30
2011,07,25,08,58,17.30
2011,07,25,08,59,17.40
2011,07,25,09,00,17.40
2011,07,25,09,01,17.40
2011,07,25,09,02,17.50
2011,07,25,09,03,17.60
2011,07,25,09,04,17.60
2011,07,25,09,05,17.70
2011,07,25,09,06,17.70
2011,07,25,09,07,17.80
2011,07,25,09,08,17.80
2011,07,25,09,09,17.80
2011,07,25,09,10,17.90
2011,07,25,09,11,17.90
2011,07,25,09,12,18.00
2011,07,25,09,13,18.00
2011,07,25,09,14,18.00
2011,07,25,09,15,18.10
2011,07,25,09,16,18.10
2011,07,25,09,17,18.20
2011,07,25,09,18,18.20
2011,07,25,09,19,18.30
2011,07,25,09,20,18.30
2011,07,25,09,21,18.40
2011,07,25,09,22,18.40
2011,07,25,09,23,18.50
2011,07,25,09,24,18.50
2011,07,25,09,25,18.60
2011,07,25,09,26,18.60
2011,07,25,09,27,18.60
2011,07,25,09,28,18.70
2011,07,25,09,29,18.70
2011,07,25,09,30,18.80
2011,07,25,09,31,18.80
2011,07,25,09,32,18.80
2011,07,25,09,33,18.80
2011,07,25,09,34,18.80
2011,07,25,09,35,18.80
2011,07,25,09,36,18.80
2011,07,25,09,37,18.80
2011,07,25,09,38,18.90
2011,07,25,09,39,18.90
2011,07,25,09,40,18.90
2011,07,25,09,41,18.90
2011,07,25,09,42,18.90
2011,07,25,09,43,18.90
2011,07,25,09,44,18.90
2011,07,25,09,45,19.00
2011,07,25,09,46,19.00
2011,07,25,09,47,19.10
2011,07,25,09,48,19.10
2011,07,25,09,49,19.10
2011,07,25,09,50,19.10
2011,07,25,09,51,19.10
2011,07,25,09,52,19.00
2011,07,25,09,53,19.00
2011,07,25,09,54,18.90
2011,07,25,09,55,18.90
2011,07,25,09,56,18.80
2011,07,25,09,57,18.80
2011,07,25,09,58,18.70
2011,07,25,09,59,18.70
2011,07,25,10,00,18.60
2011,07,25,10,01,18.60
2011,07,25,10,02,18.50
2011,07,25,10,03,18.50
2011,07,25,10,04,18.40
2011,07,25,10,05,18.40
2011,07,25,10,06,18.40
2011,07,25,10,07,18.40
2011,07,25,10,08,18.40
2011,07,25,10,09,18.40
2011,07,25,10,10,18.40
2011,07,25,10,11,18.40
2011,07,25,10,12,18.40
2011,07,25,10,13,18.40
2011,07,25,10,14,18.50
2011,07,25,10,15,18.50
2011,07,25,10,16,18.50
2011,07,25,10,17,18.60
2011,07,25,10,18,18.60
2011,07,25,10,19,18.60
2011,07,25,10,20,18.60
2011,07,25,10,21,18.60
2011,07,25,10,22,18.70
2011,07,25,10,23,18.70
2011,07,25,10,24,18.70
2011,07,25,10,25,18.70
2011,07,25,10,26,18.80
2011,07,25,10,27,18.80
2011,07,25,10,28,18.80
2011,07,25,10,29,18.90
2011,07,25,10,30,18.90
2011,07,25,10,31,19.00
2011,07,25,10,32,19.00
2011,07,25,10,33,19.10
2011,07,25,10,34,19.10
2011,07,25,10,35,19.20
2011,07,25,10,36,19.20
2011,07,25,10,37,19.30
2011,07,25,10,38,19.40
2011,07,25,10,39,19.50
2011,07,25,10,40,19.60
2011,07,25,10,41,19.70
2011,07,25,10,42,19.80
2011,07,25,10,43,19.80
2011,07,25,10,44,19.90
2011,07,25,10,45,20.00
2011,07,25,10,46,20.00
2011,07,25,10,47,20.10
2011,07,25,10,48,20.10
2011,07,25,10,49,20.20
2011,07,25,10,50,20.20
2011,07,25,10,51,20.20
2011,07,25,10,52,20.20
2011,07,25,10,53,20.30
2011,07,25,10,54,20.30
2011,07,25,10,55,20.40
2011,07,25,10,56,20.50
2011,07,25,10,57,20.70
2011,07,25,10,58,20.80
2011,07,25,10,59,20.90
2011,07,25,11,00,21.10
2011,07,25,11,01,21.20
2011,07,25,11,02,21.40
2011,07,25,11,03,21.50
2011,07,25,11,04,21.70
2011,07,25,11,05,21.80
2011,07,25,11,06,22.00
2011,07,25,11,07,22.10
2011,07,25,11,08,22.20
2011,07,25,11,09,22.30
2011,07,25,11,10,22.40
2011,07,25,11,11,22.50
2011,07,25,11,12,22.50
2011,07,25,11,13,22.60
2011,07,25,11,14,22.70
2011,07,25,11,15,22.80
2011,07,25,11,16,22.90
2011,07,25,11,17,22.90
2011,07,25,11,18,22.90
2011,07,25,11,19,22.90
2011,07,25,11,20,22.90
2011,07,25,11,21,23.00
2011,07,25,11,22,23.00
2011,07,25,11,23,23.00
2011,07,25,11,24,23.00
2011,07,25,11,25,23.00
2011,07,25,11,26,23.00
2011,07,25,11,27,23.00
2011,07,25,11,28,23.00
2011,07,25,11,29,23.00
2011,07,25,11,30,23.10
2011,07,25,11,31,23.10
2011,07,25,11,32,23.10
2011,07,25,11,33,23.10
2011,07,25,11,34,23.10
2011,07,25,11,35,23.10
2011,07,25,11,36,23.10
2011,07,25,11,37,23.00
2011,07,25,11,38,23.00
2011,07,25,11,39,23.00
2011,07,25,11,40,22.90
2011,07,25,11,41,22.90
2011,07,25,11,42,22.90
2011,07,25,11,43,23.00
2011,07,25,11,44,23.00
2011,07,25,11,45,23.00
2011,07,25,11,46,23.10
2011,07,25,11,47,23.20
2011,07,25,11,48,23.20
2011,07,25,11,49,23.20
2011,07,25,11,50,23.20
2011,07,25,11,51,23.10
2011,07,25,11,52,23.10
2011,07,25,11,53,23.10
2011,07,25,11,54,23.00
2011,07,25,11,55,22.90
2011,07,25,11,56,22.90
2011,07,25,11,57,22.90
2011,07,25,11,58,22.80
2011,07,25,11,59,22.80
2011,07,25,12,00,22.80
2011,07,25,12,01,22.70
2011,07,25,12,02,22.70
2011,07,25,12,03,22.60
2011,07,25,12,04,22.60
2011,07,25,12,05,22.60
2011,07,25,12,06,22.60
2011,07,25,12,07,22.60
2011,07,25,12,08,22.50
2011,07,25,12,09,22.50
2011,07,25,12,10,22.50
2011,07,25,12,11,22.50
2011,07,25,12,12,22.50
2011,07,25,12,13,22.60
2011,07,25,12,14,22.70
2011,07,25,12,15,22.90
2011,07,25,12,16,22.90
2011,07,25,12,17,23.00
2011,07,25,12,18,23.00
2011,07,25,12,19,23.00
2011,07,25,12,20,22.90
2011,07,25,12,21,22.90
2011,07,25,12,22,22.90
2011,07,25,12,23,22.80
2011,07,25,12,24,22.80
2011,07,25,12,25,22.80
2011,07,25,12,26,22.80
2011,07,25,12,27,22.80
2011,07,25,12,28,22.90
2011,07,25,12,29,22.90
2011,07,25,12,30,23.00
2011,07,25,12,31,23.00
2011,07,25,12,32,23.10
2011,07,25,12,33,23.10
2011,07,25,12,34,23.10
2011,07,25,12,35,23.20
2011,07,25,12,36,23.20
2011,07,25,12,37,23.10
2011,07,25,12,38,23.10
2011,07,25,12,39,23.20
2011,07,25,12,40,23.30
2011,07,25,12,41,23.40
2011,07,25,12,42,23.50
2011,07,25,12,43,23.60
2011,07,25,12,44,23.70
2011,07,25,12,45,23.70
2011,07,25,12,46,23.80
2011,07,25,12,47,23.70
2011,07,25,12,48,23.80
2011,07,25,12,49,23.80
2011,07,25,12,50,23.90
2011,07,25,12,51,24.00
2011,07,25,12,52,24.10
2011,07,25,12,53,24.20
2011,07,25,12,54,24.10
2011,07,25,12,55,24.00
2011,07,25,12,56,24.00
2011,07,25,12,57,24.00
2011,07,25,12,58,23.90
2011,07,25,12,59,24.00
2011,07,25,13,00,24.00
2011,07,25,13,01,24.00
2011,07,25,13,02,24.00
2011,07,25,13,03,24.10
2011,07,25,13,04,24.10
2011,07,25,13,05,24.10
2011,07,25,13,06,24.20
2011,07,25,13,07,24.30
2011,07,25,13,08,24.40
2011,07,25,13,09,24.50
2011,07,25,13,10,24.60
2011,07,25,13,11,24.60
2011,07,25,13,12,24.70
2011,07,25,13,13,24.80
2011,07,25,13,14,24.80
2011,07,25,13,15,24.90
2011,07,25,13,16,24.90
2011,07,25,13,17,24.80
2011,07,25,13,18,24.80
2011,07,25,13,19,24.80
2011,07,25,13,20,24.80
2011,07,25,13,21,24.70
2011,07,25,13,22,24.60
2011,07,25,13,23,24.40
2011,07,25,13,24,24.40
2011,07,25,13,25,24.40
2011,07,25,13,26,24.40
2011,07,25,13,27,24.50
2011,07,25,13,28,24.50
2011,07,25,13,29,24.50
2011,07,25,13,30,24.60
2011,07,25,13,31,24.60
2011,07,25,13,32,24.70
2011,07,25,13,33,24.80
2011,07,25,13,34,24.90
2011,07,25,13,35,24.90
2011,07,25,13,36,24.90
2011,07,25,13,37,24.90
2011,07,25,13,38,25.00
2011,07,25,13,39,25.00
2011,07,25,13,40,25.00
2011,07,25,13,41,24.90
2011,07,25,13,42,24.80
2011,07,25,13,43,24.60
2011,07,25,13,44,24.50
2011,07,25,13,45,24.30
2011,07,25,13,46,24.20
2011,07,25,13,47,24.00
2011,07,25,13,48,23.90
2011,07,25,13,49,23.90
2011,07,25,13,50,23.90
2011,07,25,13,51,23.90
2011,07,25,13,52,24.00
2011,07,25,13,53,24.10
2011,07,25,13,54,24.20
2011,07,25,13,55,24.20
2011,07,25,13,56,24.20
2011,07,25,13,57,24.30
2011,07,25,13,58,24.30
2011,07,25,13,59,24.40
2011,07,25,14,00,24.40
2011,07,25,14,01,24.40
2011,07,25,14,02,24.20
2011,07,25,14,03,24.00
2011,07,25,14,04,23.90
2011,07,25,14,05,23.70
2011,07,25,14,06,23.50
2011,07,25,14,07,23.30
2011,07,25,14,08,23.00
2011,07,25,14,09,22.80
2011,07,25,14,10,22.50
2011,07,25,14,11,22.40
2011,07,25,14,12,22.20
2011,07,25,14,13,22.10
2011,07,25,14,14,22.00
2011,07,25,14,15,21.90
2011,07,25,14,16,21.90
2011,07,25,14,17,21.80
2011,07,25,14,18,21.80
2011,07,25,14,19,21.80
2011,07,25,14,20,21.70
2011,07,25,14,21,21.70
2011,07,25,14,22,21.60
2011,07,25,14,23,21.50
2011,07,25,14,24,21.40
2011,07,25,14,25,21.40
2011,07,25,14,26,21.30
2011,07,25,14,27,21.20
2011,07,25,14,28,21.20
2011,07,25,14,29,21.10
2011,07,25,14,30,21.10
2011,07,25,14,31,21.10
2011,07,25,14,32,21.10
2011,07,25,14,33,21.10
2011,07,25,14,34,21.10
2011,07,25,14,35,21.10
2011,07,25,14,36,21.00
2011,07,25,14,37,20.90
2011,07,25,14,38,20.80
2011,07,25,14,39,20.70
2011,07,25,14,40,20.70
2011,07,25,14,41,20.70
2011,07,25,14,42,20.60
2011,07,25,14,43,20.60
2011,07,25,14,44,20.60
2011,07,25,14,45,20.60
2011,07,25,14,46,20.50
2011,07,25,14,47,20.40
2011,07,25,14,48,20.40
2011,07,25,14,49,20.40
2011,07,25,14,50,20.40
2011,07,25,14,51,20.40
2011,07,25,14,52,20.50
2011,07,25,14,53,20.40
2011,07,25,14,54,20.40
2011,07,25,14,55,20.40
2011,07,25,14,56,20.40
2011,07,25,14,57,20.30
2011,07,25,14,58,20.30
2011,07,25,14,59,20.30
2011,07,25,15,00,20.20
2011,07,25,15,01,20.20
2011,07,25,15,02,20.10
2011,07,25,15,03,20.10
2011,07,25,15,04,20.10
2011,07,25,15,05,20.10
2011,07,25,15,06,20.10
2011,07,25,15,07,20.20
2011,07,25,15,08,20.30
2011,07,25,15,09,20.30
2011,07,25,15,10,20.40
2011,07,25,15,11,20.40
2011,07,25,15,12,20.50
2011,07,25,15,13,20.50
2011,07,25,15,14,20.60
2011,07,25,15,15,20.70
2011,07,25,15,16,20.70
2011,07,25,15,17,20.80
2011,07,25,15,18,20.80
2011,07,25,15,19,20.90
2011,07,25,15,20,20.90
2011,07,25,15,21,20.90
2011,07,25,15,22,21.00
2011,07,25,15,23,21.00
2011,07,25,15,24,21.10
2011,07,25,15,25,21.10
2011,07,25,15,26,21.20
2011,07,25,15,27,21.20
2011,07,25,15,28,21.30
2011,07,25,15,29,21.30
2011,07,25,15,30,21.30
2011,07,25,15,31,21.30
2011,07,25,15,32,21.30
2011,07,25,15,33,21.30
2011,07,25,15,34,21.20
2011,07,25,15,35,21.10
2011,07,25,15,36,21.10
2011,07,25,15,37,21.00
2011,07,25,15,38,21.00
2011,07,25,15,39,20.90
2011,07,25,15,40,20.90
2011,07,25,15,41,20.90
2011,07,25,15,42,21.00
2011,07,25,15,43,21.10
2011,07,25,15,44,21.10
2011,07,25,15,45,21.20
2011,07,25,15,46,21.30
2011,07,25,15,47,21.30
2011,07,25,15,48,21.40
2011,07,25,15,49,21.50
2011,07,25,15,50,21.50
2011,07,25,15,51,21.60
2011,07,25,15,52,21.60
2011,07,25,15,53,21.60
2011,07,25,15,54,21.60
2011,07,25,15,55,21.60
2011,07,25,15,56,21.70
2011,07,25,15,57,21.70
2011,07,25,15,58,21.80
2011,07,25,15,59,21.80
2011,07,25,16,00,21.80
2011,07,25,16,01,21.80
2011,07,25,16,02,21.80
2011,07,25,16,03,21.80
2011,07,25,16,04,21.80
2011,07,25,16,05,21.80
2011,07,25,16,06,21.80
2011,07,25,16,07,21.80
2011,07,25,16,08,21.80
2011,07,25,16,09,21.70
2011,07,25,16,10,21.70
2011,07,25,16,11,21.70
2011,07,25,16,12,21.70
2011,07,25,16,13,21.70
2011,07,25,16,14,21.60
2011,07,25,16,15,21.60
2011,07,25,16,16,21.60
2011,07,25,16,17,21.60
2011,07,25,16,18,21.60
2011,07,25,16,19,21.60
2011,07,25,16,20,21.60
2011,07,25,16,21,21.60
2011,07,25,16,22,21.60
2011,07,25,16,23,21.60
2011,07,25,16,24,21.60
2011,07,25,16,25,21.60
2011,07,25,16,26,21.60
2011,07,25,16,27,21.70
2011,07,25,16,28,21.70
2011,07,25,16,29,21.70
2011,07,25,16,30,21.80
2011,07,25,16,31,21.90
2011,07,25,16,32,22.00
2011,07,25,16,33,22.20
2011,07,25,16,34,22.30
2011,07,25,16,35,22.30
2011,07,25,16,36,22.40
2011,07,25,16,37,22.50
2011,07,25,16,38,22.60
2011,07,25,16,39,22.50
2011,07,25,16,40,22.50
2011,07,25,16,41,22.40
2011,07,25,16,42,22.30
2011,07,25,16,43,22.20
2011,07,25,16,44,22.20
2011,07,25,16,45,22.20
2011,07,25,16,46,22.20
2011,07,25,16,47,22.20
2011,07,25,16,48,22.10
2011,07,25,16,49,22.00
2011,07,25,16,50,22.00
2011,07,25,16,51,21.90
2011,07,25,16,52,21.80
2011,07,25,16,53,21.80
2011,07,25,16,54,21.80
2011,07,25,16,55,21.90
2011,07,25,16,56,21.90
2011,07,25,16,57,22.00
2011,07,25,16,58,22.00
2011,07,25,16,59,22.10
2011,07,25,17,00,22.20
2011,07,25,17,01,22.30
2011,07,25,17,02,22.40
2011,07,25,17,03,22.40
2011,07,25,17,04,22.30
2011,07,25,17,05,22.30
2011,07,25,17,06,22.30
2011,07,25,17,07,22.40
2011,07,25,17,08,22.50
2011,07,25,17,09,22.40
2011,07,25,17,10,22.40
2011,07,25,17,11,22.40
2011,07,25,17,12,22.50
2011,07,25,17,13,22.50
2011,07,25,17,14,22.40
2011,07,25,17,15,22.30
2011,07,25,17,16,22.30
2011,07,25,17,17,22.30
2011,07,25,17,18,22.20
2011,07,25,17,19,22.10